Location: Berg
(48.4333°N, 13.9167°E)
Time: 04:02:52
(UTC+00:00)

ATLAS CENTAUR R/B - Pass Details

Date: 25 January 2021
Orbit: 475 x 670 km, 64.7° (Epoch: 06 March)

Event Time Altitude Azimuth Distance (km) Brightness Sun altitude
Exits shadow 06:01:00 - 254° (WSW) 2,151 3.9 -7.0°
Reaches altitude 10° 06:02:24 10° 264° (W) 1,647 3.2 -6.8°
Maximum altitude 06:05:29 25° 322° (NW) 1,001 2.2 -6.3°
Drops below altitude 10° 06:08:35 10° 19° (NNE) 1,662 3.8 -5.8°
Sets 06:11:01 0° 33° (NNE) 2,560 4.9 -5.4°
